Погода в Козловке

Россия / Чувашская Республика     55°50′25″N   48°14′42″E
темп.,
°C
ветер,
м/с
пор.,
м/с
влажн.,
%
обл.,
%
осадки,
мм/ч
давл.,
гПа
погр.,
м
13 мая, чт
чт1300:00+15вюв226228 0.0 102519
03:00+14в226416 0.0 102514
06:00+16вюв276716 0.0 1024200
09:00+21юв69505 0.0 1024605
12:00+23юв794670 0.0 10231036
15:00+22вюв5856100 0.0 1022638
18:00+21юв7135991 0.0 1021440
21:00+20юв6166374 0.1 1020415
14 мая, пт
пт1400:00+17ю51476100 0.3 1021325
03:00+14юв228536 1.3 102117
06:00+16ююв3880100 0.0 1021245
09:00+21ю466380 0.0 1021519
12:00+24ю4558100 0.0 1021926
15:00+24ю565691 0.0 10201173
18:00+23ююв356259 0.0 1019110
21:00+18ю3471100 0.0 101950
15 мая, сб
сб1500:00+16ю3474100 0.0 101961
03:00+16ююв387479 0.0 1019123
06:00+17ю51170100 0.1 1019239
09:00+22ю6954100 0.1 1019404
12:00+27ю71143100 0.0 1018991
15:00+27ю61043100 0.0 10171255
18:00+23ю5115736 0.0 1016274
21:00+18ю5146228 0.0 1016212
16 мая, вс
вс1600:00+17ю515574 0.0 1016256
03:00+15ю412635 0.0 1016198
06:00+17ю41266100 0.0 1016283
09:00+22юз595496 0.0 1015524
12:00+26юз6946100 0.0 10151199
15:00+27юз594441 0.0 10141606
18:00+24зюз366480 0.0 1014166
21:00+18з228298 0.0 101513
17 мая, пн
пн1700:00+17зсз349054 0.6 101659
03:00+15з229281 1.0 101635
06:00+17зюз247716 0.0 1017152
09:00+21з34572 0.0 1017696
12:00+24з354740 0.0 10171171
15:00+25з455068 0.0 10171300
18:00+23ссз24655 0.0 1017113
21:00+18ю11785 0.3 101811